Regional Weather Roundup
Issued by NWS Sioux Falls, SD

Home | Current Version | Previous Version | Text Only | Print | Product List | Glossary Off
Versions: 1 2 3 4 5 6 7 8 9 10 11 12 13 14 15 16 17 18 19 20 21 22 23 24 25 26 27 28 29 30 31 32 33 34 35 36 37 38 39 40 41 42 43 44 45 46 47 48 49 50

001
ASUS43 KFSD 192310
RWRFSD

WEATHER ROUNDUP FOR SE SOUTH DAKOTA/SW MINNESOTA/NW IOWA
NATIONAL WEATHER SERVICE SIOUX FALLS SD
500 PM CST SUN FEB 19 2017

NOTE: "FAIR" INDICATES FEW OR NO CLOUDS BELOW 12,000 FEET WITH NO
SIGNIFICANT WEATHER AND OR OBSTRUCTIONS TO VISIBILITY.


SDZ038>040-050-052>070-200000-
SOUTHEAST SOUTH DAKOTA

CITY           SKY/WX    TMP DP  RH WIND       PRES   REMARKS
BROOKINGS      CLOUDY    59  49  69 S20G25    29.66R
CHAMBERLAIN    MOSUNNY   67  47  48 S17       29.56S
HURON          CLOUDY    61  50  67 S15G28    29.58S
MADISON        FAIR      57  55  94 S21G31    29.66S
MITCHELL       CLOUDY    64  51  62 S25G33    29.60S
SIOUX FALLS    CLOUDY    61  51  70 S16       29.69F
WINNER         FAIR      70  40  33 S15       29.57R
YANKTON        CLOUDY    63  50  63 SE15G22   29.67S
$$

MNZ071-072-080-081-089-090-097-098-200000-
SOUTHWEST MINNESOTA

CITY           SKY/WX    TMP DP  RH WIND       PRES   REMARKS
FAIRMONT       PTCLDY    59  52  77 SE14      29.83S
JACKSON        CLOUDY    57  50  77 SE13      29.80F
LUVERNE        MOCLDY    57  48  72 S10       29.73S
MARSHALL       CLOUDY    61  52  72 S20G33    29.71S
MONTEVIDEO     CLOUDY    57  52  82 S15G22    29.72F
PIPESTONE      PTCLDY    59  46  63 S16       29.71S
REDWOOD FALLS  PTCLDY    58  51  78 SE16      29.76F
TRACY          CLOUDY    61  53  76 S14       29.74S
WINDOM         CLOUDY    61  52  72 SE16G22   29.77F
WORTHINGTON    CLOUDY    59  50  72 S14       29.77S
$$

IAZ001>003-012>014-020>022-031-032-NEZ013-014-SDZ071-200000-
NORTHWEST IOWA

CITY           SKY/WX    TMP DP  RH WIND       PRES   REMARKS
CHEROKEE       CLOUDY    61  51  70 S10       29.78S
DENISON        PTCLDY    64  50  59 S13G18    29.79S
ESTHERVILLE    CLEAR     58  53  84 SE14      29.80F
LE MARS        PTCLDY    63  50  63 S13G22    29.75R
SHELDON        PTCLDY    59  55  88 S15G22    29.74S
SIOUX CITY     CLOUDY    66  52  60 S16       29.74F
SPENCER        PTCLDY    60  50  69 SE14      29.78F
STORM LAKE     PTCLDY    61  52  72 S15       29.80F
$$

ABBREVIATIONS USED IN REMARKS
   TC - TEMPERATURE IN CELSIUS
  WCI - WIND CHILL INDEX
   HX - HEAT INDEX
  VSB - VISIBILITY





USA.gov is the U.S. government's official web portal to all federal, state and local government web resources and services.